Weather History for KCBF - February, 2014

Change the Weather History Date:

Saturday, February 15, 2014

  Actual Average Record
Temperature  
Mean Temperature 33 °F -  
Max Temperature 51 °F 37 °F 62 °F (2000)
Min Temperature 15 °F 22 °F -2 °F (2004)
Degree Days  
Heating Degree Days 32    
Moisture  
Dew Point 22 °F    
Average Humidity 74    
Maximum Humidity 87    
Minimum Humidity 44    
Precipitation  
Precipitation 0.00 in - - ()
Sea Level Pressure  
Sea Level Pressure 29.91 in    
Wind  
Wind Speed 12 mph (SSW)    
Max Wind Speed 26 mph    
Max Gust Speed 36 mph    
Visibility 10 miles    
Events Snow    
Averages and records for this station are not official NWS values.
T = Trace of Precipitation, MM = Missing Value Source: NWS Daily Summary

Daily Weather History Graph

Daily Weather History Graph

Search for Another Location

Airport or City:

Trip Planner

Search our weather history database for the weather conditions in past years. The results will help you decide how hot, cold, wet, or windy it might be!

Date:

Astronomy

Feb. 15, 2014 Rise Set
Actual Time 7:17 AM CST 5:57 PM CST
Civil Twilight 6:49 AM CST 6:25 PM CST
Nautical Twilight 6:17 AM CST 6:57 PM CST
Astronomical Twilight 5:45 AM CST 7:29 PM CST
Moon 6:59 PM CST (2/15) 7:16 AM CST (2/15)
Length of Visible Light 11h 36m
Length of Day
10h 39m
Waxing Gibbous, 99% of the Moon is Illuminated
Feb 15
Waxing Gibbous
Feb 22
Last Quarter
Mar 1
New
Mar 8
First Quarter
Mar 16
Full

Hourly Weather History & Observations

Time (CST) Temp. Windchill Dew Point Humidity Pressure Visibility Wind Dir Wind Speed Gust Speed Precip Events Conditions
12:15 AM 15.8 °F 5.1 °F 8.6 °F 73% 30.03 in 10.0 mi ESE 8.1 mph - N/A   Clear
12:35 AM 15.8 °F 6.1 °F 8.6 °F 73% 30.03 in 10.0 mi SE 6.9 mph - N/A   Clear
12:55 AM 15.8 °F 5.1 °F 8.6 °F 73% 30.03 in 10.0 mi SE 8.1 mph - N/A   Clear
1:15 AM 15.8 °F 7.2 °F 10.4 °F 79% 30.04 in 10.0 mi SE 5.8 mph - N/A   Partly Cloudy
1:35 AM 15.8 °F 5.1 °F 10.4 °F 79% 30.03 in 10.0 mi SE 8.1 mph - N/A   Partly Cloudy
1:55 AM 15.8 °F 6.1 °F 10.4 °F 79% 30.02 in 10.0 mi SE 6.9 mph - N/A   Mostly Cloudy
2:15 AM 15.8 °F 5.1 °F 10.4 °F 79% 30.01 in 10.0 mi SSE 8.1 mph - N/A   Partly Cloudy
2:35 AM 15.8 °F 4.2 °F 10.4 °F 79% 30.01 in 10.0 mi SSE 9.2 mph - N/A   Scattered Clouds
2:55 AM 15.8 °F 4.2 °F 10.4 °F 79% 30.00 in 10.0 mi South 9.2 mph - N/A   Partly Cloudy
3:15 AM 17.6 °F 5.7 °F 12.2 °F 79% 30.00 in 10.0 mi South 10.4 mph - N/A   Partly Cloudy
3:35 AM 17.6 °F 5.7 °F 12.2 °F 79% 29.98 in 10.0 mi SE 10.4 mph - N/A   Scattered Clouds
3:55 AM 17.6 °F 5.7 °F 12.2 °F 79% 29.95 in 10.0 mi SSE 10.4 mph - N/A   Mostly Cloudy
4:15 AM 17.6 °F 3.7 °F 12.2 °F 79% 29.95 in 10.0 mi South 13.8 mph - N/A   Mostly Cloudy
4:35 AM 19.4 °F 7.9 °F 12.2 °F 74% 29.95 in 10.0 mi South 10.4 mph - N/A   Overcast
4:55 AM 19.4 °F 6.6 °F 12.2 °F 74% 29.95 in 10.0 mi South 12.7 mph - N/A   Overcast
5:15 AM 19.4 °F 7.2 °F 14.0 °F 80% 29.93 in 10.0 mi SSE 11.5 mph - N/A   Overcast
5:35 AM 19.4 °F 7.2 °F 14.0 °F 80% 29.93 in 10.0 mi South 11.5 mph - N/A   Overcast
5:55 AM 21.2 °F 8.9 °F 14.0 °F 74% 29.92 in 10.0 mi SSE 12.7 mph - N/A   Overcast
6:15 AM 21.2 °F 8.3 °F 15.8 °F 80% 29.91 in 10.0 mi SSE 13.8 mph - N/A   Mostly Cloudy
6:35 AM 21.2 °F 8.3 °F 15.8 °F 80% 29.91 in 10.0 mi SSE 13.8 mph - N/A   Overcast
6:55 AM 21.2 °F 8.9 °F 15.8 °F 80% 29.90 in 10.0 mi South 12.7 mph - N/A   Overcast
7:15 AM 21.2 °F 7.8 °F 15.8 °F 80% 29.89 in 10.0 mi SSE 15.0 mph - N/A   Overcast
7:35 AM 21.2 °F 8.3 °F 15.8 °F 80% 29.88 in 10.0 mi SSE 13.8 mph - N/A   Overcast
7:55 AM 21.2 °F 7.8 °F 15.8 °F 80% 29.88 in 10.0 mi SSE 15.0 mph - N/A   Overcast
8:15 AM 21.2 °F 7.8 °F 17.6 °F 86% 29.88 in 10.0 mi SSE 15.0 mph 20.7 mph N/A   Overcast
8:35 AM 23.0 °F 11.7 °F 17.6 °F 80% 29.90 in 10.0 mi SSE 11.5 mph 17.3 mph N/A   Mostly Cloudy
8:55 AM 23.0 °F 11.1 °F 17.6 °F 80% 29.89 in 10.0 mi SSE 12.7 mph - N/A   Mostly Cloudy
9:15 AM 23.0 °F 11.1 °F 17.6 °F 80% 29.89 in 10.0 mi SSE 12.7 mph - N/A   Scattered Clouds
9:35 AM 24.8 °F 13.4 °F 17.6 °F 74% 29.90 in 10.0 mi South 12.7 mph - N/A   Scattered Clouds
9:55 AM 24.8 °F 13.4 °F 19.4 °F 80% 29.90 in 4.0 mi South 12.7 mph - N/A   Scattered Clouds
10:15 AM 24.8 °F 12.9 °F 19.4 °F 80% 29.87 in 3.0 mi South 13.8 mph - N/A   Partly Cloudy
10:35 AM 24.8 °F 11.9 °F 21.2 °F 86% 29.86 in 1.0 mi South 16.1 mph - N/A Snow Light Snow
10:55 AM 26.6 °F 14.3 °F 23.0 °F 86% 29.85 in 6.0 mi South 16.1 mph - N/A   Haze
11:15 AM 28.4 °F 17.5 °F 23.0 °F 80% 29.86 in 10.0 mi South 13.8 mph - N/A   Clear
11:35 AM 30.2 °F 18.5 °F 23.0 °F 75% 29.84 in 10.0 mi SSW 17.3 mph - N/A   Scattered Clouds
11:55 AM 30.2 °F 19.8 °F 23.0 °F 75% 29.83 in 10.0 mi SSW 13.8 mph 23.0 mph N/A   Mostly Cloudy
12:15 PM 32.0 °F 20.1 °F 24.8 °F 75% 29.82 in 10.0 mi SSW 19.6 mph 28.8 mph N/A   Partly Cloudy
12:35 PM 30.2 °F 19.3 °F 24.8 °F 80% 29.83 in 9.0 mi SW 15.0 mph - N/A   Mostly Cloudy
12:55 PM 32.0 °F 21.6 °F 24.8 °F 75% 29.81 in 10.0 mi SSW 15.0 mph - N/A   Mostly Cloudy
1:15 PM 33.8 °F 23.9 °F 26.6 °F 75% 29.80 in 9.0 mi SSW 15.0 mph 20.7 mph N/A   Clear
1:35 PM 37.4 °F 27.5 °F 28.4 °F 70% 29.79 in 10.0 mi SSW 18.4 mph - N/A   Clear
1:55 PM 39.2 °F 30.8 °F 30.2 °F 70% 29.78 in 10.0 mi SW 15.0 mph - N/A   Clear
2:15 PM 41.0 °F 34.3 °F 30.2 °F 65% 29.78 in 10.0 mi SW 11.5 mph 21.9 mph N/A   Clear
2:35 PM 42.8 °F 36.6 °F 30.2 °F 61% 29.77 in 10.0 mi SW 11.5 mph 19.6 mph N/A   Clear
2:55 PM 44.6 °F 39.2 °F 32.0 °F 61% 29.76 in 10.0 mi SW 10.4 mph 17.3 mph N/A   Clear
3:15 PM 46.4 °F 39.5 °F 32.0 °F 57% 29.76 in 10.0 mi SW 17.3 mph - N/A   Clear
3:35 PM 46.4 °F 40.4 °F 32.0 °F 57% 29.77 in 10.0 mi WSW 13.8 mph - N/A   Clear
3:55 PM 46.4 °F 40.1 °F 32.0 °F 57% 29.76 in 10.0 mi SW 15.0 mph - N/A   Clear
4:15 PM 48.2 °F - 32.0 °F 54% 29.77 in 10.0 mi SW 15.0 mph - N/A   Clear
4:35 PM 46.4 °F 42.4 °F 32.0 °F 57% 29.78 in 10.0 mi WSW 8.1 mph 16.1 mph N/A   Partly Cloudy
4:55 PM 48.2 °F - 32.0 °F 54% 29.79 in 10.0 mi West 8.1 mph 13.8 mph N/A   Mostly Cloudy
5:15 PM 51.8 °F - 30.2 °F 44% 29.81 in 10.0 mi NNW 18.4 mph 34.5 mph N/A   Scattered Clouds
5:35 PM 50.0 °F - 30.2 °F 47% 29.83 in 10.0 mi NW 26.5 mph 34.5 mph N/A   Clear
5:55 PM 46.4 °F 38.5 °F 30.2 °F 53% 29.85 in 10.0 mi NW 21.9 mph 35.7 mph N/A   Clear
6:15 PM 46.4 °F 39.2 °F 30.2 °F 53% 29.88 in 10.0 mi NW 18.4 mph 29.9 mph N/A   Clear
6:35 PM 44.6 °F 36.9 °F 30.2 °F 57% 29.89 in 10.0 mi NNW 18.4 mph 27.6 mph N/A   Clear
6:55 PM 42.8 °F 35.1 °F 30.2 °F 61% 29.91 in 10.0 mi NNW 16.1 mph 27.6 mph N/A   Clear
7:15 PM 42.8 °F 35.4 °F 30.2 °F 61% 29.93 in 10.0 mi NW 15.0 mph 23.0 mph N/A   Clear
7:35 PM 41.0 °F 33.1 °F 30.2 °F 65% 29.94 in 10.0 mi NNW 15.0 mph 20.7 mph N/A   Clear
7:55 PM 39.2 °F 30.8 °F 32.0 °F 75% 29.95 in 10.0 mi North 15.0 mph 21.9 mph N/A   Clear
8:15 PM 39.2 °F 31.2 °F 32.0 °F 75% 29.96 in 10.0 mi North 13.8 mph 24.2 mph N/A   Clear
8:35 PM 37.4 °F 27.2 °F 32.0 °F 81% 29.97 in 10.0 mi North 19.6 mph 26.5 mph N/A   Clear
8:55 PM 35.6 °F 25.9 °F 30.2 °F 81% 29.98 in 10.0 mi NNW 16.1 mph 24.2 mph N/A   Scattered Clouds
9:15 PM 33.8 °F 24.3 °F 30.2 °F 87% 29.99 in 10.0 mi NNW 13.8 mph 21.9 mph N/A   Mostly Cloudy
9:35 PM 33.8 °F 25.8 °F 30.2 °F 87% 30.01 in 10.0 mi North 10.4 mph 24.2 mph N/A   Overcast
9:55 PM 33.8 °F 23.9 °F 30.2 °F 87% 30.02 in 10.0 mi North 15.0 mph 20.7 mph N/A   Overcast
10:15 PM 33.8 °F 25.3 °F 30.2 °F 87% 30.03 in 10.0 mi NNW 11.5 mph - N/A   Overcast
10:35 PM 33.8 °F 23.9 °F 30.2 °F 87% 30.02 in 10.0 mi NNW 15.0 mph 23.0 mph N/A   Overcast
10:55 PM 32.0 °F 22.1 °F 28.4 °F 87% 30.02 in 10.0 mi NNW 13.8 mph 21.9 mph N/A   Overcast
11:15 PM 32.0 °F 21.6 °F 28.4 °F 87% 30.02 in 10.0 mi North 15.0 mph 20.7 mph N/A   Overcast
11:35 PM 32.0 °F 25.6 °F 28.4 °F 87% 30.04 in 10.0 mi NNW 6.9 mph 12.7 mph N/A   Overcast
11:55 PM 32.0 °F 24.2 °F 28.4 °F 87% 30.04 in 10.0 mi North 9.2 mph - N/A   Overcast